Year,Month,Day,Hour,Minute,Value (Times are PST for temperature in C)
2011,08,21,00,00,19.60
2011,08,21,00,01,19.60
2011,08,21,00,02,19.60
2011,08,21,00,03,19.60
2011,08,21,00,04,19.60
2011,08,21,00,05,19.60
2011,08,21,00,06,19.60
2011,08,21,00,07,19.60
2011,08,21,00,08,19.60
2011,08,21,00,09,19.50
2011,08,21,00,10,19.50
2011,08,21,00,11,19.50
2011,08,21,00,12,19.50
2011,08,21,00,13,19.40
2011,08,21,00,14,19.40
2011,08,21,00,15,19.40
2011,08,21,00,16,19.30
2011,08,21,00,17,19.30
2011,08,21,00,18,19.30
2011,08,21,00,19,19.30
2011,08,21,00,20,19.20
2011,08,21,00,21,19.20
2011,08,21,00,22,19.20
2011,08,21,00,23,19.20
2011,08,21,00,24,19.20
2011,08,21,00,25,19.20
2011,08,21,00,26,19.20
2011,08,21,00,27,19.20
2011,08,21,00,28,19.10
2011,08,21,00,29,19.20
2011,08,21,00,30,19.20
2011,08,21,00,31,19.20
2011,08,21,00,32,19.20
2011,08,21,00,33,19.20
2011,08,21,00,34,19.20
2011,08,21,00,35,19.20
2011,08,21,00,36,19.10
2011,08,21,00,37,19.10
2011,08,21,00,38,19.10
2011,08,21,00,39,19.10
2011,08,21,00,40,19.10
2011,08,21,00,41,19.10
2011,08,21,00,42,19.10
2011,08,21,00,43,19.10
2011,08,21,00,44,19.10
2011,08,21,00,45,19.10
2011,08,21,00,46,19.10
2011,08,21,00,47,19.00
2011,08,21,00,48,19.00
2011,08,21,00,49,19.00
2011,08,21,00,50,19.00
2011,08,21,00,51,19.00
2011,08,21,00,52,18.90
2011,08,21,00,53,18.90
2011,08,21,00,54,18.90
2011,08,21,00,55,18.90
2011,08,21,00,56,18.90
2011,08,21,00,57,18.90
2011,08,21,00,58,18.80
2011,08,21,00,59,18.80
2011,08,21,01,00,18.80
2011,08,21,01,01,18.80
2011,08,21,01,02,18.80
2011,08,21,01,03,18.80
2011,08,21,01,04,18.80
2011,08,21,01,05,18.70
2011,08,21,01,06,18.70
2011,08,21,01,07,18.70
2011,08,21,01,08,18.70
2011,08,21,01,09,18.70
2011,08,21,01,10,18.70
2011,08,21,01,11,18.80
2011,08,21,01,12,18.80
2011,08,21,01,13,18.70
2011,08,21,01,14,18.70
2011,08,21,01,15,18.70
2011,08,21,01,16,18.70
2011,08,21,01,17,18.70
2011,08,21,01,18,18.70
2011,08,21,01,19,18.70
2011,08,21,01,20,18.70
2011,08,21,01,21,18.80
2011,08,21,01,22,18.80
2011,08,21,01,23,18.90
2011,08,21,01,24,18.90
2011,08,21,01,25,19.00
2011,08,21,01,26,19.00
2011,08,21,01,27,19.10
2011,08,21,01,28,19.10
2011,08,21,01,29,19.20
2011,08,21,01,30,19.20
2011,08,21,01,31,19.20
2011,08,21,01,32,19.20
2011,08,21,01,33,19.20
2011,08,21,01,34,19.20
2011,08,21,01,35,19.30
2011,08,21,01,36,19.20
2011,08,21,01,37,19.20
2011,08,21,01,38,19.20
2011,08,21,01,39,19.20
2011,08,21,01,40,19.20
2011,08,21,01,41,19.20
2011,08,21,01,42,19.20
2011,08,21,01,43,19.10
2011,08,21,01,44,19.10
2011,08,21,01,45,19.10
2011,08,21,01,46,19.10
2011,08,21,01,47,19.00
2011,08,21,01,48,19.00
2011,08,21,01,49,19.00
2011,08,21,01,50,18.90
2011,08,21,01,51,18.90
2011,08,21,01,52,18.90
2011,08,21,01,53,18.90
2011,08,21,01,54,18.90
2011,08,21,01,55,18.90
2011,08,21,01,56,18.90
2011,08,21,01,57,19.00
2011,08,21,01,58,19.00
2011,08,21,01,59,19.00
2011,08,21,02,00,19.10
2011,08,21,02,01,19.10
2011,08,21,02,02,19.10
2011,08,21,02,03,19.10
2011,08,21,02,04,19.10
2011,08,21,02,05,19.10
2011,08,21,02,06,19.10
2011,08,21,02,07,19.10
2011,08,21,02,08,19.10
2011,08,21,02,09,19.10
2011,08,21,02,10,19.10
2011,08,21,02,11,19.20
2011,08,21,02,12,19.20
2011,08,21,02,13,19.20
2011,08,21,02,14,19.30
2011,08,21,02,15,19.30
2011,08,21,02,16,19.30
2011,08,21,02,17,19.40
2011,08,21,02,18,19.40
2011,08,21,02,19,19.50
2011,08,21,02,20,19.50
2011,08,21,02,21,19.60
2011,08,21,02,22,19.60
2011,08,21,02,23,19.70
2011,08,21,02,24,19.70
2011,08,21,02,25,19.70
2011,08,21,02,26,19.70
2011,08,21,02,27,19.80
2011,08,21,02,28,19.80
2011,08,21,02,29,19.80
2011,08,21,02,30,19.80
2011,08,21,02,31,19.80
2011,08,21,02,32,19.80
2011,08,21,02,33,19.80
2011,08,21,02,34,19.70
2011,08,21,02,35,19.70
2011,08,21,02,36,19.70
2011,08,21,02,37,19.70
2011,08,21,02,38,19.60
2011,08,21,02,39,19.60
2011,08,21,02,40,19.60
2011,08,21,02,41,19.50
2011,08,21,02,42,19.50
2011,08,21,02,43,19.40
2011,08,21,02,44,19.40
2011,08,21,02,45,19.30
2011,08,21,02,46,19.30
2011,08,21,02,47,19.20
2011,08,21,02,48,19.20
2011,08,21,02,49,19.20
2011,08,21,02,50,19.20
2011,08,21,02,51,19.10
2011,08,21,02,52,19.10
2011,08,21,02,53,19.10
2011,08,21,02,54,19.10
2011,08,21,02,55,19.10
2011,08,21,02,56,19.10
2011,08,21,02,57,19.10
2011,08,21,02,58,19.10
2011,08,21,02,59,19.10
2011,08,21,03,00,19.10
2011,08,21,03,01,19.10
2011,08,21,03,02,19.10
2011,08,21,03,03,19.10
2011,08,21,03,04,19.10
2011,08,21,03,05,19.10
2011,08,21,03,06,19.10
2011,08,21,03,07,19.00
2011,08,21,03,08,19.00
2011,08,21,03,09,19.00
2011,08,21,03,10,19.00
2011,08,21,03,11,18.90
2011,08,21,03,12,18.90
2011,08,21,03,13,18.90
2011,08,21,03,14,18.90
2011,08,21,03,15,18.90
2011,08,21,03,16,18.80
2011,08,21,03,17,18.80
2011,08,21,03,18,18.80
2011,08,21,03,19,18.80
2011,08,21,03,20,18.80
2011,08,21,03,21,18.80
2011,08,21,03,22,18.90
2011,08,21,03,23,18.90
2011,08,21,03,24,18.90
2011,08,21,03,25,18.90
2011,08,21,03,26,18.90
2011,08,21,03,27,18.90
2011,08,21,03,28,18.90
2011,08,21,03,29,18.90
2011,08,21,03,30,18.90
2011,08,21,03,31,18.90
2011,08,21,03,32,18.90
2011,08,21,03,33,18.90
2011,08,21,03,34,18.90
2011,08,21,03,35,18.90
2011,08,21,03,36,18.90
2011,08,21,03,37,18.90
2011,08,21,03,38,18.90
2011,08,21,03,39,18.90
2011,08,21,03,40,18.90
2011,08,21,03,41,18.90
2011,08,21,03,42,18.90
2011,08,21,03,43,18.90
2011,08,21,03,44,18.90
2011,08,21,03,45,18.90
2011,08,21,03,46,18.90
2011,08,21,03,47,18.90
2011,08,21,03,48,18.90
2011,08,21,03,49,19.00
2011,08,21,03,50,19.00
2011,08,21,03,51,19.00
2011,08,21,03,52,19.00
2011,08,21,03,53,19.00
2011,08,21,03,54,19.00
2011,08,21,03,55,19.00
2011,08,21,03,56,19.10
2011,08,21,03,57,19.10
2011,08,21,03,58,19.10
2011,08,21,03,59,19.10
2011,08,21,04,00,19.10
2011,08,21,04,01,19.10
2011,08,21,04,02,19.10
2011,08,21,04,03,19.10
2011,08,21,04,04,19.10
2011,08,21,04,05,19.10
2011,08,21,04,06,19.10
2011,08,21,04,07,19.10
2011,08,21,04,08,19.10
2011,08,21,04,09,19.10
2011,08,21,04,10,19.10
2011,08,21,04,11,19.10
2011,08,21,04,12,19.10
2011,08,21,04,13,19.10
2011,08,21,04,14,19.10
2011,08,21,04,15,19.00
2011,08,21,04,16,19.00
2011,08,21,04,17,19.00
2011,08,21,04,18,19.00
2011,08,21,04,19,18.90
2011,08,21,04,20,18.90
2011,08,21,04,21,18.90
2011,08,21,04,22,18.90
2011,08,21,04,23,18.90
2011,08,21,04,24,18.90
2011,08,21,04,25,18.80
2011,08,21,04,26,18.80
2011,08,21,04,27,18.80
2011,08,21,04,28,18.80
2011,08,21,04,29,18.90
2011,08,21,04,30,18.90
2011,08,21,04,31,18.90
2011,08,21,04,32,19.00
2011,08,21,04,33,19.00
2011,08,21,04,34,19.00
2011,08,21,04,35,19.10
2011,08,21,04,36,19.10
2011,08,21,04,37,19.10
2011,08,21,04,38,19.20
2011,08,21,04,39,19.20
2011,08,21,04,40,19.20
2011,08,21,04,41,19.20
2011,08,21,04,42,19.20
2011,08,21,04,43,19.20
2011,08,21,04,44,19.20
2011,08,21,04,45,19.30
2011,08,21,04,46,19.30
2011,08,21,04,47,19.30
2011,08,21,04,48,19.40
2011,08,21,04,49,19.50
2011,08,21,04,50,19.50
2011,08,21,04,51,19.60
2011,08,21,04,52,19.70
2011,08,21,04,53,19.70
2011,08,21,04,54,19.70
2011,08,21,04,55,19.70
2011,08,21,04,56,19.80
2011,08,21,04,57,19.80
2011,08,21,04,58,19.80
2011,08,21,04,59,19.80
2011,08,21,05,00,19.80
2011,08,21,05,01,19.80
2011,08,21,05,02,19.70
2011,08,21,05,03,19.70
2011,08,21,05,04,19.70
2011,08,21,05,05,19.70
2011,08,21,05,06,19.60
2011,08,21,05,07,19.60
2011,08,21,05,08,19.60
2011,08,21,05,09,19.50
2011,08,21,05,10,19.50
2011,08,21,05,11,19.40
2011,08,21,05,12,19.40
2011,08,21,05,13,19.40
2011,08,21,05,14,19.30
2011,08,21,05,15,19.30
2011,08,21,05,16,19.30
2011,08,21,05,17,19.30
2011,08,21,05,18,19.20
2011,08,21,05,19,19.20
2011,08,21,05,20,19.20
2011,08,21,05,21,19.20
2011,08,21,05,22,19.20
2011,08,21,05,23,19.20
2011,08,21,05,24,19.10
2011,08,21,05,25,19.10
2011,08,21,05,26,19.10
2011,08,21,05,27,19.10
2011,08,21,05,28,19.00
2011,08,21,05,29,19.00
2011,08,21,05,30,18.90
2011,08,21,05,31,18.90
2011,08,21,05,32,18.90
2011,08,21,05,33,18.80
2011,08,21,05,34,18.80
2011,08,21,05,35,18.80
2011,08,21,05,36,18.80
2011,08,21,05,37,18.80
2011,08,21,05,38,18.70
2011,08,21,05,39,18.70
2011,08,21,05,40,18.70
2011,08,21,05,41,18.60
2011,08,21,05,42,18.60
2011,08,21,05,43,18.60
2011,08,21,05,44,18.60
2011,08,21,05,45,18.60
2011,08,21,05,46,18.50
2011,08,21,05,47,18.50
2011,08,21,05,48,18.50
2011,08,21,05,49,18.50
2011,08,21,05,50,18.40
2011,08,21,05,51,18.40
2011,08,21,05,52,18.40
2011,08,21,05,53,18.40
2011,08,21,05,54,18.40
2011,08,21,05,55,18.40
2011,08,21,05,56,18.40
2011,08,21,05,57,18.40
2011,08,21,05,58,18.40
2011,08,21,05,59,18.40
2011,08,21,06,00,18.40
2011,08,21,06,01,18.40
2011,08,21,06,02,18.40
2011,08,21,06,03,18.40
2011,08,21,06,04,18.40
2011,08,21,06,05,18.40
2011,08,21,06,06,18.40
2011,08,21,06,07,18.40
2011,08,21,06,08,18.50
2011,08,21,06,09,18.50
2011,08,21,06,10,18.50
2011,08,21,06,11,18.50
2011,08,21,06,12,18.50
2011,08,21,06,13,18.50
2011,08,21,06,14,18.50
2011,08,21,06,15,18.50
2011,08,21,06,16,18.50
2011,08,21,06,17,18.50
2011,08,21,06,18,18.50
2011,08,21,06,19,18.50
2011,08,21,06,20,18.50
2011,08,21,06,21,18.50
2011,08,21,06,22,18.50
2011,08,21,06,23,18.50
2011,08,21,06,24,18.50
2011,08,21,06,25,18.50
2011,08,21,06,26,18.50
2011,08,21,06,27,18.60
2011,08,21,06,28,18.50
2011,08,21,06,29,18.50
2011,08,21,06,30,18.50
2011,08,21,06,31,18.50
2011,08,21,06,32,18.50
2011,08,21,06,33,18.50
2011,08,21,06,34,18.50
2011,08,21,06,35,18.40
2011,08,21,06,36,18.40
2011,08,21,06,37,18.40
2011,08,21,06,38,18.40
2011,08,21,06,39,18.40
2011,08,21,06,40,18.40
2011,08,21,06,41,18.40
2011,08,21,06,42,18.40
2011,08,21,06,43,18.40
2011,08,21,06,44,18.40
2011,08,21,06,45,18.40
2011,08,21,06,46,18.40
2011,08,21,06,47,18.40
2011,08,21,06,48,18.40
2011,08,21,06,49,18.40
2011,08,21,06,50,18.40
2011,08,21,06,51,18.40
2011,08,21,06,52,18.40
2011,08,21,06,53,18.50
2011,08,21,06,54,18.50
2011,08,21,06,55,18.50
2011,08,21,06,56,18.50
2011,08,21,06,57,18.50
2011,08,21,06,58,18.50
2011,08,21,06,59,18.60
2011,08,21,07,00,18.60
2011,08,21,07,01,18.60
2011,08,21,07,02,18.60
2011,08,21,07,03,18.60
2011,08,21,07,04,18.60
2011,08,21,07,05,18.60
2011,08,21,07,06,18.60
2011,08,21,07,07,18.60
2011,08,21,07,08,18.60
2011,08,21,07,09,18.60
2011,08,21,07,10,18.60
2011,08,21,07,11,18.70
2011,08,21,07,12,18.70
2011,08,21,07,13,18.70
2011,08,21,07,14,18.70
2011,08,21,07,15,18.70
2011,08,21,07,16,18.70
2011,08,21,07,17,18.70
2011,08,21,07,18,18.70
2011,08,21,07,19,18.70
2011,08,21,07,20,18.70
2011,08,21,07,21,18.70
2011,08,21,07,22,18.70
2011,08,21,07,23,18.70
2011,08,21,07,24,18.70
2011,08,21,07,25,18.70
2011,08,21,07,26,18.70
2011,08,21,07,27,18.80
2011,08,21,07,28,18.80
2011,08,21,07,29,18.80
2011,08,21,07,30,18.80
2011,08,21,07,31,18.80
2011,08,21,07,32,18.80
2011,08,21,07,33,18.80
2011,08,21,07,34,18.80
2011,08,21,07,35,18.80
2011,08,21,07,36,18.80
2011,08,21,07,37,18.80
2011,08,21,07,38,18.90
2011,08,21,07,39,18.90
2011,08,21,07,40,18.90
2011,08,21,07,41,18.90
2011,08,21,07,42,18.90
2011,08,21,07,43,18.90
2011,08,21,07,44,18.90
2011,08,21,07,45,18.90
2011,08,21,07,46,18.90
2011,08,21,07,47,18.90
2011,08,21,07,48,19.00
2011,08,21,07,49,19.00
2011,08,21,07,50,19.00
2011,08,21,07,51,19.00
2011,08,21,07,52,19.10
2011,08,21,07,53,19.10
2011,08,21,07,54,19.10
2011,08,21,07,55,19.20
2011,08,21,07,56,19.20
2011,08,21,07,57,19.20
2011,08,21,07,58,19.20
2011,08,21,07,59,19.30
2011,08,21,08,00,19.30
2011,08,21,08,01,19.30
2011,08,21,08,02,19.40
2011,08,21,08,03,19.40
2011,08,21,08,04,19.50
2011,08,21,08,05,19.50
2011,08,21,08,06,19.60
2011,08,21,08,07,19.70
2011,08,21,08,08,19.70
2011,08,21,08,09,19.80
2011,08,21,08,10,19.80
2011,08,21,08,11,19.90
2011,08,21,08,12,20.00
2011,08,21,08,13,20.10
2011,08,21,08,14,20.10
2011,08,21,08,15,20.20
2011,08,21,08,16,20.30
2011,08,21,08,17,20.30
2011,08,21,08,18,20.30
2011,08,21,08,19,20.30
2011,08,21,08,20,20.30
2011,08,21,08,21,20.40
2011,08,21,08,22,20.40
2011,08,21,08,23,20.40
2011,08,21,08,24,20.40
2011,08,21,08,25,20.40
2011,08,21,08,26,20.40
2011,08,21,08,27,20.40
2011,08,21,08,28,20.40
2011,08,21,08,29,20.40
2011,08,21,08,30,20.40
2011,08,21,08,31,20.40
2011,08,21,08,32,20.40
2011,08,21,08,33,20.40
2011,08,21,08,34,20.40
2011,08,21,08,35,20.40
2011,08,21,08,36,20.40
2011,08,21,08,37,20.50
2011,08,21,08,38,20.50
2011,08,21,08,39,20.60
2011,08,21,08,40,20.60
2011,08,21,08,41,20.50
2011,08,21,08,42,20.50
2011,08,21,08,43,20.50
2011,08,21,08,44,20.60
2011,08,21,08,45,20.60
2011,08,21,08,46,20.60
2011,08,21,08,47,20.60
2011,08,21,08,48,20.60
2011,08,21,08,49,20.50
2011,08,21,08,50,20.50
2011,08,21,08,51,20.50
2011,08,21,08,52,20.40
2011,08,21,08,53,20.40
2011,08,21,08,54,20.40
2011,08,21,08,55,20.40
2011,08,21,08,56,20.40
2011,08,21,08,57,20.40
2011,08,21,08,58,20.40
2011,08,21,08,59,20.40
2011,08,21,09,00,20.40
2011,08,21,09,01,20.40
2011,08,21,09,02,20.50
2011,08,21,09,03,20.50
2011,08,21,09,04,20.60
2011,08,21,09,05,20.60
2011,08,21,09,06,20.70
2011,08,21,09,07,20.70
2011,08,21,09,08,20.80
2011,08,21,09,09,20.90
2011,08,21,09,10,20.90
2011,08,21,09,11,21.00
2011,08,21,09,12,21.10
2011,08,21,09,13,21.10
2011,08,21,09,14,21.20
2011,08,21,09,15,21.20
2011,08,21,09,16,21.30
2011,08,21,09,17,21.30
2011,08,21,09,18,21.30
2011,08,21,09,19,21.30
2011,08,21,09,20,21.30
2011,08,21,09,21,21.40
2011,08,21,09,22,21.40
2011,08,21,09,23,21.50
2011,08,21,09,24,21.50
2011,08,21,09,25,21.60
2011,08,21,09,26,21.70
2011,08,21,09,27,21.80
2011,08,21,09,28,21.90
2011,08,21,09,29,22.00
2011,08,21,09,30,22.00
2011,08,21,09,31,22.10
2011,08,21,09,32,22.20
2011,08,21,09,33,22.20
2011,08,21,09,34,22.20
2011,08,21,09,35,22.20
2011,08,21,09,36,22.20
2011,08,21,09,37,22.20
2011,08,21,09,38,22.30
2011,08,21,09,39,22.30
2011,08,21,09,40,22.30
2011,08,21,09,41,22.30
2011,08,21,09,42,22.40
2011,08,21,09,43,22.40
2011,08,21,09,44,22.40
2011,08,21,09,45,22.40
2011,08,21,09,46,22.40
2011,08,21,09,47,22.40
2011,08,21,09,48,22.30
2011,08,21,09,49,22.30
2011,08,21,09,50,22.30
2011,08,21,09,51,22.20
2011,08,21,09,52,22.20
2011,08,21,09,53,22.10
2011,08,21,09,54,22.00
2011,08,21,09,55,21.90
2011,08,21,09,56,21.90
2011,08,21,09,57,21.90
2011,08,21,09,58,21.90
2011,08,21,09,59,21.90
2011,08,21,10,00,21.90
2011,08,21,10,01,21.90
2011,08,21,10,02,21.80
2011,08,21,10,03,21.80
2011,08,21,10,04,21.80
2011,08,21,10,05,21.80
2011,08,21,10,06,21.80
2011,08,21,10,07,21.80
2011,08,21,10,08,21.80
2011,08,21,10,09,21.80
2011,08,21,10,10,21.80
2011,08,21,10,11,21.80
2011,08,21,10,12,21.80
2011,08,21,10,13,21.80
2011,08,21,10,14,21.80
2011,08,21,10,15,21.90
2011,08,21,10,16,21.90
2011,08,21,10,17,21.90
2011,08,21,10,18,21.90
2011,08,21,10,19,22.00
2011,08,21,10,20,22.00
2011,08,21,10,21,22.00
2011,08,21,10,22,22.00
2011,08,21,10,23,22.00
2011,08,21,10,24,22.00
2011,08,21,10,25,22.00
2011,08,21,10,26,22.00
2011,08,21,10,27,22.00
2011,08,21,10,28,22.10
2011,08,21,10,29,22.10
2011,08,21,10,30,22.10
2011,08,21,10,31,22.10
2011,08,21,10,32,22.10
2011,08,21,10,33,22.10
2011,08,21,10,34,22.10
2011,08,21,10,35,22.10
2011,08,21,10,36,22.10
2011,08,21,10,37,22.10
2011,08,21,10,38,22.10
2011,08,21,10,39,22.20
2011,08,21,10,40,22.20
2011,08,21,10,41,22.20
2011,08,21,10,42,22.20
2011,08,21,10,43,22.20
2011,08,21,10,44,22.30
2011,08,21,10,45,22.30
2011,08,21,10,46,22.30
2011,08,21,10,47,22.30
2011,08,21,10,48,22.40
2011,08,21,10,49,22.40
2011,08,21,10,50,22.40
2011,08,21,10,51,22.50
2011,08,21,10,52,22.50
2011,08,21,10,53,22.60
2011,08,21,10,54,22.60
2011,08,21,10,55,22.70
2011,08,21,10,56,22.70
2011,08,21,10,57,22.80
2011,08,21,10,58,22.80
2011,08,21,10,59,22.90
2011,08,21,11,00,22.90
2011,08,21,11,01,22.90
2011,08,21,11,02,23.00
2011,08,21,11,03,23.00
2011,08,21,11,04,23.10
2011,08,21,11,05,23.10
2011,08,21,11,06,23.10
2011,08,21,11,07,23.10
2011,08,21,11,08,23.10
2011,08,21,11,09,23.00
2011,08,21,11,10,23.00
2011,08,21,11,11,22.90
2011,08,21,11,12,22.90
2011,08,21,11,13,22.80
2011,08,21,11,14,22.70
2011,08,21,11,15,22.60
2011,08,21,11,16,22.50
2011,08,21,11,17,22.50
2011,08,21,11,18,22.40
2011,08,21,11,19,22.40
2011,08,21,11,20,22.40
2011,08,21,11,21,22.40
2011,08,21,11,22,22.40
2011,08,21,11,23,22.30
2011,08,21,11,24,22.40
2011,08,21,11,25,22.40
2011,08,21,11,26,22.40
2011,08,21,11,27,22.40
2011,08,21,11,28,22.50
2011,08,21,11,29,22.50
2011,08,21,11,30,22.60
2011,08,21,11,31,22.60
2011,08,21,11,32,22.60
2011,08,21,11,33,22.60
2011,08,21,11,34,22.50
2011,08,21,11,35,22.50
2011,08,21,11,36,22.40
2011,08,21,11,37,22.30
2011,08,21,11,38,22.20
2011,08,21,11,39,22.10
2011,08,21,11,40,22.00
2011,08,21,11,41,22.00
2011,08,21,11,42,21.90
2011,08,21,11,43,21.80
2011,08,21,11,44,21.70
2011,08,21,11,45,21.70
2011,08,21,11,46,21.60
2011,08,21,11,47,21.50
2011,08,21,11,48,21.50
2011,08,21,11,49,21.40
2011,08,21,11,50,21.30
2011,08,21,11,51,21.30
2011,08,21,11,52,21.30
2011,08,21,11,53,21.30
2011,08,21,11,54,21.30
2011,08,21,11,55,21.30
2011,08,21,11,56,21.30
2011,08,21,11,57,21.30
2011,08,21,11,58,21.30
2011,08,21,11,59,21.40
2011,08,21,12,00,21.30
2011,08,21,12,01,21.40
2011,08,21,12,02,21.40
2011,08,21,12,03,21.40
2011,08,21,12,04,21.40
2011,08,21,12,05,21.40
2011,08,21,12,06,21.40
2011,08,21,12,07,21.40
2011,08,21,12,08,21.40
2011,08,21,12,09,21.50
2011,08,21,12,10,21.50
2011,08,21,12,11,21.60
2011,08,21,12,12,21.60
2011,08,21,12,13,21.60
2011,08,21,12,14,21.60
2011,08,21,12,15,21.60
2011,08,21,12,16,21.60
2011,08,21,12,17,21.60
2011,08,21,12,18,21.60
2011,08,21,12,19,21.60
2011,08,21,12,20,21.60
2011,08,21,12,21,21.60
2011,08,21,12,22,21.60
2011,08,21,12,23,21.60
2011,08,21,12,24,21.60
2011,08,21,12,25,21.70
2011,08,21,12,26,21.70
2011,08,21,12,27,21.70
2011,08,21,12,28,21.70
2011,08,21,12,29,21.70
2011,08,21,12,30,21.80
2011,08,21,12,31,21.80
2011,08,21,12,32,21.80
2011,08,21,12,33,21.80
2011,08,21,12,34,21.80
2011,08,21,12,35,21.70
2011,08,21,12,36,21.70
2011,08,21,12,37,21.60
2011,08,21,12,38,21.50
2011,08,21,12,39,21.40
2011,08,21,12,40,21.30
2011,08,21,12,41,21.20
2011,08,21,12,42,21.10
2011,08,21,12,43,21.10
2011,08,21,12,44,21.00
2011,08,21,12,45,20.90
2011,08,21,12,46,20.90
2011,08,21,12,47,20.90
2011,08,21,12,48,20.80
2011,08,21,12,49,20.80
2011,08,21,12,50,20.80
2011,08,21,12,51,20.80
2011,08,21,12,52,20.80
2011,08,21,12,53,20.80
2011,08,21,12,54,20.80
2011,08,21,12,55,20.80
2011,08,21,12,56,20.70
2011,08,21,12,57,20.70
2011,08,21,12,58,20.70
2011,08,21,12,59,20.70
2011,08,21,13,00,20.70
2011,08,21,13,01,20.70
2011,08,21,13,02,20.70
2011,08,21,13,03,20.70
2011,08,21,13,04,20.70
2011,08,21,13,05,20.80
2011,08,21,13,06,20.80
2011,08,21,13,07,20.90
2011,08,21,13,08,21.00
2011,08,21,13,09,21.10
2011,08,21,13,10,21.20
2011,08,21,13,11,21.20
2011,08,21,13,12,21.30
2011,08,21,13,13,21.30
2011,08,21,13,14,21.40
2011,08,21,13,15,21.40
2011,08,21,13,16,21.50
2011,08,21,13,17,21.50
2011,08,21,13,18,21.50
2011,08,21,13,19,21.60
2011,08,21,13,20,21.70
2011,08,21,13,21,21.80
2011,08,21,13,22,21.80
2011,08,21,13,23,21.80
2011,08,21,13,24,21.90
2011,08,21,13,25,21.90
2011,08,21,13,26,21.90
2011,08,21,13,27,21.90
2011,08,21,13,28,21.90
2011,08,21,13,29,22.00
2011,08,21,13,30,22.00
2011,08,21,13,31,22.00
2011,08,21,13,32,22.00
2011,08,21,13,33,22.00
2011,08,21,13,34,22.10
2011,08,21,13,35,22.10
2011,08,21,13,36,22.20
2011,08,21,13,37,22.30
2011,08,21,13,38,22.30
2011,08,21,13,39,22.40
2011,08,21,13,40,22.40
2011,08,21,13,41,22.50
2011,08,21,13,42,22.60
2011,08,21,13,43,22.60
2011,08,21,13,44,22.60
2011,08,21,13,45,22.70
2011,08,21,13,46,22.80
2011,08,21,13,47,22.80
2011,08,21,13,48,22.80
2011,08,21,13,49,22.90
2011,08,21,13,50,23.00
2011,08,21,13,51,23.00
2011,08,21,13,52,23.00
2011,08,21,13,53,22.90
2011,08,21,13,54,22.80
2011,08,21,13,55,22.80
2011,08,21,13,56,22.60
2011,08,21,13,57,22.60
2011,08,21,13,58,22.50
2011,08,21,13,59,22.60
2011,08,21,14,00,22.60
2011,08,21,14,01,22.60
2011,08,21,14,02,22.70
2011,08,21,14,03,22.70
2011,08,21,14,04,22.80
2011,08,21,14,05,22.90
2011,08,21,14,06,22.90
2011,08,21,14,07,23.00
2011,08,21,14,08,23.10
2011,08,21,14,09,23.10
2011,08,21,14,10,23.10
2011,08,21,14,11,23.10
2011,08,21,14,12,23.10
2011,08,21,14,13,23.10
2011,08,21,14,14,23.10
2011,08,21,14,15,23.20
2011,08,21,14,16,23.30
2011,08,21,14,17,23.40
2011,08,21,14,18,23.50
2011,08,21,14,19,23.60
2011,08,21,14,20,23.70
2011,08,21,14,21,23.70
2011,08,21,14,22,23.80
2011,08,21,14,23,23.80
2011,08,21,14,24,23.80
2011,08,21,14,25,23.80
2011,08,21,14,26,23.80
2011,08,21,14,27,23.80
2011,08,21,14,28,23.80
2011,08,21,14,29,23.80
2011,08,21,14,30,23.70
2011,08,21,14,31,23.70
2011,08,21,14,32,23.70
2011,08,21,14,33,23.70
2011,08,21,14,34,23.70
2011,08,21,14,35,23.70
2011,08,21,14,36,23.80
2011,08,21,14,37,23.70
2011,08,21,14,38,23.70
2011,08,21,14,39,23.70
2011,08,21,14,40,23.60
2011,08,21,14,41,23.60
2011,08,21,14,42,23.60
2011,08,21,14,43,23.60
2011,08,21,14,44,23.60
2011,08,21,14,45,23.50
2011,08,21,14,46,23.50
2011,08,21,14,47,23.50
2011,08,21,14,48,23.50
2011,08,21,14,49,23.50
2011,08,21,14,50,23.60
2011,08,21,14,51,23.60
2011,08,21,14,52,23.70
2011,08,21,14,53,23.80
2011,08,21,14,54,24.00
2011,08,21,14,55,24.10
2011,08,21,14,56,24.20
2011,08,21,14,57,24.40
2011,08,21,14,58,24.40
2011,08,21,14,59,24.60
2011,08,21,15,00,24.70
2011,08,21,15,01,24.80
2011,08,21,15,02,24.90
2011,08,21,15,03,25.00
2011,08,21,15,04,25.00
2011,08,21,15,05,25.10
2011,08,21,15,06,25.20
2011,08,21,15,07,25.20
2011,08,21,15,08,25.20
2011,08,21,15,09,25.30
2011,08,21,15,10,25.20
2011,08,21,15,11,25.20
2011,08,21,15,12,25.20
2011,08,21,15,13,25.30
2011,08,21,15,14,25.30
2011,08,21,15,15,25.30
2011,08,21,15,16,25.30
2011,08,21,15,17,25.30
2011,08,21,15,18,25.20
2011,08,21,15,19,25.20
2011,08,21,15,20,25.10
2011,08,21,15,21,24.90
2011,08,21,15,22,24.70
2011,08,21,15,23,24.40
2011,08,21,15,24,24.20
2011,08,21,15,25,24.10
2011,08,21,15,26,24.00
2011,08,21,15,27,24.00
2011,08,21,15,28,23.90
2011,08,21,15,29,23.90
2011,08,21,15,30,23.80
2011,08,21,15,31,23.80
2011,08,21,15,32,23.70
2011,08,21,15,33,23.60
2011,08,21,15,34,23.50
2011,08,21,15,35,23.40
2011,08,21,15,36,23.30
2011,08,21,15,37,23.30
2011,08,21,15,38,23.20
2011,08,21,15,39,23.20
2011,08,21,15,40,23.20
2011,08,21,15,41,23.20
2011,08,21,15,42,23.20
2011,08,21,15,43,23.20
2011,08,21,15,44,23.20
2011,08,21,15,45,23.10
2011,08,21,15,46,23.10
2011,08,21,15,47,23.00
2011,08,21,15,48,23.00
2011,08,21,15,49,23.00
2011,08,21,15,50,22.90
2011,08,21,15,51,22.90
2011,08,21,15,52,22.90
2011,08,21,15,53,22.90
2011,08,21,15,54,22.90
2011,08,21,15,55,22.90
2011,08,21,15,56,22.90
2011,08,21,15,57,22.90
2011,08,21,15,58,22.80
2011,08,21,15,59,22.80
2011,08,21,16,00,22.80
2011,08,21,16,01,22.80
2011,08,21,16,02,22.70
2011,08,21,16,03,22.70
2011,08,21,16,04,22.70
2011,08,21,16,05,22.70
2011,08,21,16,06,22.70
2011,08,21,16,07,22.70
2011,08,21,16,08,22.70
2011,08,21,16,09,22.70
2011,08,21,16,10,22.70
2011,08,21,16,11,22.70
2011,08,21,16,12,22.80
2011,08,21,16,13,22.80
2011,08,21,16,14,22.80
2011,08,21,16,15,22.80
2011,08,21,16,16,22.80
2011,08,21,16,17,22.80
2011,08,21,16,18,22.80
2011,08,21,16,19,22.80
2011,08,21,16,20,22.90
2011,08,21,16,21,22.90
2011,08,21,16,22,23.00
2011,08,21,16,23,23.00
2011,08,21,16,24,23.10
2011,08,21,16,25,23.20
2011,08,21,16,26,23.30
2011,08,21,16,27,23.40
2011,08,21,16,28,23.50
2011,08,21,16,29,23.60
2011,08,21,16,30,23.70
2011,08,21,16,31,23.70
2011,08,21,16,32,23.60
2011,08,21,16,33,23.60
2011,08,21,16,34,23.60
2011,08,21,16,35,23.60
2011,08,21,16,36,23.60
2011,08,21,16,37,23.70
2011,08,21,16,38,23.70
2011,08,21,16,39,23.70
2011,08,21,16,40,23.70
2011,08,21,16,41,23.80
2011,08,21,16,42,23.80
2011,08,21,16,43,23.90
2011,08,21,16,44,24.00
2011,08,21,16,45,24.00
2011,08,21,16,46,24.10
2011,08,21,16,47,24.00
2011,08,21,16,48,24.00
2011,08,21,16,49,24.00
2011,08,21,16,50,23.90
2011,08,21,16,51,23.90
2011,08,21,16,52,23.90
2011,08,21,16,53,23.90
2011,08,21,16,54,23.90
2011,08,21,16,55,23.80
2011,08,21,16,56,23.80
2011,08,21,16,57,23.80
2011,08,21,16,58,23.80
2011,08,21,16,59,23.80
2011,08,21,17,00,23.80
2011,08,21,17,01,23.80
2011,08,21,17,02,23.80
2011,08,21,17,03,23.80
2011,08,21,17,04,23.70
2011,08,21,17,05,23.70
2011,08,21,17,06,23.70
2011,08,21,17,07,23.70
2011,08,21,17,08,23.70
2011,08,21,17,09,23.80
2011,08,21,17,10,23.80
2011,08,21,17,11,23.90
2011,08,21,17,12,24.00
2011,08,21,17,13,24.00
2011,08,21,17,14,24.10
2011,08,21,17,15,24.20
2011,08,21,17,16,24.20
2011,08,21,17,17,24.30
2011,08,21,17,18,24.30
2011,08,21,17,19,24.40